SQ7PKP-15 Weather Reports


time (UTC)temp
C
wind
direction
speed
KPH
gust
KPH
rain 1hr
cm
rain 24hr
cm
rain mn
cm
humidity
%
barometer
mb
20260503072315 18 0.0 0.0 0.00 0.00 0.00 42 1017.8
20260503071243 17 0.0 0.0 0.00 0.00 0.00 43 1018.1
20260503070243 17 0.0 0.0 0.00 0.00 0.00 46 1018.0
20260503060242 14 0.0 0.0 0.00 0.00 0.00 51 1018.1
20260503054243 13 0.0 0.0 0.00 0.00 0.00 62 1017.6
20260503053243 12 0.0 0.0 0.00 0.00 0.00 64 1018.1
20260503052243 11 0.0 0.0 0.00 0.00 0.00 68 1018.1
20260503051243 11 0.0 0.0 0.00 0.00 0.00 70 1018.2
20260503050243 10 0.0 0.0 0.00 0.00 0.00 76 1018.4
20260503045243 9 0.0 0.0 0.00 0.00 0.00 78 1018.2
20260503044246 8 0.0 0.0 0.00 0.00 0.00 76 1018.0
20260503043258 7 0.0 0.0 0.00 0.00 0.00 79 1018.5
20260503042243 6 0.0 0.0 0.00 0.00 0.00 80 1018.8
20260503041243 6 0.0 0.0 0.00 0.00 0.00 83 1019.0
20260503040243 5 0.0 0.0 0.00 0.00 0.00 84 1019.4
20260503035258 5 0.0 0.0 0.00 0.00 0.00 84 1020.1
20260503034259 5 0.0 0.0 0.00 0.00 0.00 83 1020.1
20260503033259 5 0.0 0.0 0.00 0.00 0.00 83 1020.0
20260503032243 5 0.0 0.0 0.00 0.00 0.00 83 1020.5
20260503031243 5 0.0 0.0 0.00 0.00 0.00 83 1020.0
20260503030243 5 0.0 0.0 0.00 0.00 0.00 84 1019.9
20260503025243 5 0.0 0.0 0.00 0.00 0.00 84 1020.4
20260503024243 5 0.0 0.0 0.00 0.00 0.00 84 1020.3
20260503023258 5 0.0 0.0 0.00 0.00 0.00 84 1020.7
20260503022246 5 0.0 0.0 0.00 0.00 0.00 84 1020.4
20260503021330 6 0.0 0.0 0.00 0.00 0.00 82 1020.5
20260503020243 6 0.0 0.0 0.00 0.00 0.00 82 1020.6
20260503015242 6 0.0 0.0 0.00 0.00 0.00 82 1020.5
20260503014243 6 0.0 0.0 0.00 0.00 0.00 80 1020.5
20260503013243 6 0.0 0.0 0.00 0.00 0.00 80 1020.4
20260503012243 6 0.0 0.0 0.00 0.00 0.00 80 1020.6
20260503011242 6 0.0 0.0 0.00 0.00 0.00 79 1020.5
20260503010258 6 0.0 0.0 0.00 0.00 0.00 79 1020.7
20260503005243 7 0.0 0.0 0.00 0.00 0.00 77 1020.7
20260503004242 7 0.0 0.0 0.00 0.00 0.00 76 1020.5
20260503003246 7 0.0 0.0 0.00 0.00 0.00 75 1020.8
20260503002243 7 0.0 0.0 0.00 0.00 0.00 74 1020.5
20260503001242 7 0.0 0.0 0.00 0.00 0.00 74 1020.7
20260503000242 7 0.0 0.0 0.00 0.00 0.00 73 1020.5
20260502235246 8 0.0 0.0 0.00 0.00 0.00 72 1020.8
20260502234242 8 0.0 0.0 0.00 0.00 0.00 70 1020.9
20260502233243 8 0.0 0.0 0.00 0.00 0.00 68 1021.0
20260502232243 9 0.0 0.0 0.00 0.00 0.00 65 1020.9
20260502231243 9 0.0 0.0 0.00 0.00 0.00 65 1020.3
20260502230243 9 0.0 0.0 0.00 0.00 0.00 65 1020.2
20260502224242 9 0.0 0.0 0.00 0.00 0.00 65 1020.4
20260502223243 9 0.0 0.0 0.00 0.00 0.00 66 1021.1
20260502222258 10 0.0 0.0 0.00 0.00 0.00 64 1021.3
20260502221246 10 0.0 0.0 0.00 0.00 0.00 62 1020.4
20260502220243 10 0.0 0.0 0.00 0.00 0.00 63 1020.0
20260502215301 10 0.0 0.0 0.00 0.00 0.00 65 1020.6
20260502214243 10 0.0 0.0 0.00 0.00 0.00 67 1021.0
20260502213242 10 0.0 0.0 0.00 0.00 0.00 68 1021.1
20260502212243 10 0.0 0.0 0.00 0.00 0.00 66 1021.2
20260502211246 11 0.0 0.0 0.00 0.00 0.00 61 1021.1
20260502210243 11 0.0 0.0 0.00 0.00 0.00 62 1020.4
20260502205243 11 0.0 0.0 0.00 0.00 0.00 64 1021.1
20260502204243 11 0.0 0.0 0.00 0.00 0.00 64 1021.4
20260502203243 11 0.0 0.0 0.00 0.00 0.00 63 1021.6
20260502202314 12 0.0 0.0 0.00 0.00 0.00 61 1021.3
20260502201244 12 0.0 0.0 0.00 0.00 0.00 60 1021.0
20260502200243 12 0.0 0.0 0.00 0.00 0.00 61 1021.2
20260502195259 12 0.0 0.0 0.00 0.00 0.00 59 1021.4
20260502194242 13 0.0 0.0 0.00 0.00 0.00 54 1021.3
20260502193314 13 0.0 0.0 0.00 0.00 0.00 53 1021.3
20260502192243 13 0.0 0.0 0.00 0.00 0.00 50 1021.3
20260502191243 14 0.0 0.0 0.00 0.00 0.00 50 1021.6
20260502190242 15 0.0 0.0 0.00 0.00 0.00 48 1021.5
20260502185243 15 0.0 0.0 0.00 0.00 0.00 46 1021.7
20260502184243 16 0.0 0.0 0.00 0.00 0.00 45 1021.7
20260502183243 17 0.0 0.0 0.00 0.00 0.00 41 1021.7
20260502182243 17 0.0 0.0 0.00 0.00 0.00 39 1021.7
20260502181243 18 0.0 0.0 0.00 0.00 0.00 38 1021.5
20260502180243 19 0.0 0.0 0.00 0.00 0.00 36 1021.4
20260502170246 23 0.0 0.0 0.00 0.00 0.00 26 1020.4
20260502164246 24 0.0 0.0 0.00 0.00 0.00 26 1022.4
20260502163242 26 0.0 0.0 0.00 0.00 0.00 23 1020.2
20260502162243 26 0.0 0.0 0.00 0.00 0.00 23 1023.1
20260502161246 28 0.0 0.0 0.00 0.00 0.00 21 1020.0
20260502160243 28 0.0 0.0 0.00 0.00 0.00 18 1019.8
20260502152246 27 0.0 0.0 0.00 0.00 0.00 20 1021.7
20260502151243 28 0.0 0.0 0.00 0.00 0.00 19 1020.8
20260502150315 28 0.0 0.0 0.00 0.00 0.00 18 1023.8
20260502130242 28 0.0 0.0 0.00 0.00 0.00 20 1022.8
20260502123243 28 0.0 0.0 0.00 0.00 0.00 22 1020.4
20260502122243 26 0.0 0.0 0.00 0.00 0.00 25 1024.0
20260502121243 27 0.0 0.0 0.00 0.00 0.00 23 1022.5
20260502120243 27 0.0 0.0 0.00 0.00 0.00 21 1023.2
20260502115242 27 0.0 0.0 0.00 0.00 0.00 21 1023.2
20260502114243 27 0.0 0.0 0.00 0.00 0.00 21 1022.8
20260502113243 27 0.0 0.0 0.00 0.00 0.00 22 1021.1
20260502112243 26 0.0 0.0 0.00 0.00 0.00 23 1024.8
20260502111246 27 0.0 0.0 0.00 0.00 0.00 23 1021.2
20260502110243 26 0.0 0.0 0.00 0.00 0.00 22 1024.2
20260502105242 26 0.0 0.0 0.00 0.00 0.00 24 1022.0
20260502104258 25 0.0 0.0 0.00 0.00 0.00 24 1024.0
20260502103243 25 0.0 0.0 0.00 0.00 0.00 26 1026.2
20260502102243 26 0.0 0.0 0.00 0.00 0.00 25 1023.4
20260502101243 26 0.0 0.0 0.00 0.00 0.00 25 1023.3
20260502100243 25 0.0 0.0 0.00 0.00 0.00 26 1023.2
20260502091246 22 0.0 0.0 0.00 0.00 0.00 29 1024.2
20260502090243 22 0.0 0.0 0.00 0.00 0.00 32 1025.3